Location: Be Tobo
(6.6442°N, 10.6239°W)
Time: 01:19:47
(UTC+00:00)

Cosmos 1844 Rocket - Pass Details

Date: 18 September 2020
Orbit: 823 x 846 km, 71.0° (Epoch: 21 October)

Event Time Altitude Azimuth Distance (km) Brightness Sun altitude
Rises 19:26:11 0° 187° (S) 3,353 5.9 -12.2°
Reaches altitude 10° 19:28:40 10° 182° (S) 2,418 5.1 -12.8°
Maximum altitude 19:34:05 56° 105° (ESE) 968 2.7 -14.2°
Drops below altitude 10° 19:39:28 10° 27° (NNE) 2,413 4.8 -15.5°
Sets 19:41:56 0° 23° (NNE) 3,346 5.6 -16.1°
